Weather History for Caumont Avignon, France

Change the Weather History Date:

Sunday, August 10, 2014

  Actual Average (LFTW) Record (LFTW)
Temperature  
Mean Temperature 78 °F -  
Max Temperature 91 °F 84 °F 96 °F (2003)
Min Temperature 64 °F 65 °F 57 °F (2007)
Cooling Degree Days 12    
Growing Degree Days 28 (Base 50)    
Moisture  
Dew Point 64 °F    
Average Humidity 68    
Maximum Humidity 100    
Minimum Humidity 36    
Precipitation  
Precipitation 0.00 in - - ()
Sea Level Pressure  
Sea Level Pressure 29.91 in    
Wind  
Wind Speed 4 mph ()    
Max Wind Speed 16 mph    
Max Gust Speed -    
Visibility 6.1 miles    
Events      
Averages and records for this station are not official NWS values.
T = Trace of Precipitation, MM = Missing Value Source: Averaged Metar Reports

Daily Weather History Graph

Daily Weather History Graph

Search for Another Location

Airport:

Trip Planner

Search our weather history database for the weather conditions in past years. The results will help you decide how hot, cold, wet, or windy it might be!

Date:

Astronomy

Aug. 10, 2014 Rise Set
Actual Time 6:38 AM CEST 8:52 PM CEST
Civil Twilight 6:06 AM CEST 9:23 PM CEST
Nautical Twilight 5:27 AM CEST 10:03 PM CEST
Astronomical Twilight 4:43 AM CEST 10:46 PM CEST
Moon 8:25 PM CEST (8/10) 6:12 AM CEST (8/10)
Length of Visible Light 15h 17m
Length of Day
14h 13m
Full, 100% of the Moon is Illuminated
Aug 10
Full
Aug 10
Full
Aug 17
Last Quarter
Aug 25
New
Sep 2
First Quarter

Hourly Weather History & Observations

Time (CEST) Temp. Heat Index Dew Point Humidity Pressure Visibility Wind Dir Wind Speed Gust Speed Precip Events Conditions
1:00 AM 69.8 °F - 66.2 °F 88% 29.95 in 6.2 mi Calm Calm - N/A   Unknown
1:30 AM 68.0 °F - 66.2 °F 94% 29.92 in 6.2 mi East 3.5 mph - N/A   Unknown
2:00 AM 68.0 °F - 64.4 °F 88% 29.92 in 6.2 mi ENE 2.3 mph - N/A   Unknown
2:30 AM 66.2 °F - 64.4 °F 94% 29.92 in 6.2 mi Calm Calm - N/A   Unknown
3:00 AM 66.2 °F - 64.4 °F 94% 29.92 in 6.2 mi Calm Calm - N/A   Unknown
3:30 AM 66.2 °F - 64.4 °F 94% 29.92 in 6.2 mi Calm Calm - N/A   Unknown
4:00 AM 64.4 °F - 62.6 °F 94% 29.92 in 6.2 mi Calm Calm - N/A   Unknown
4:30 AM 64.4 °F - 64.4 °F 100% 29.92 in 6.2 mi Calm Calm - N/A   Unknown
5:00 AM 64.4 °F - 64.4 °F 100% 29.92 in 6.2 mi Calm Calm - N/A   Unknown
5:30 AM 64.4 °F - 62.6 °F 94% 29.92 in 6.2 mi Calm Calm - N/A   Unknown
6:00 AM 64.4 °F - 64.4 °F 100% 29.92 in 6.2 mi Variable 2.3 mph - N/A   Unknown
6:30 AM 66.2 °F - 64.4 °F 94% 29.92 in 6.2 mi North 4.6 mph - N/A   Unknown
7:00 AM 66.2 °F - 64.4 °F 94% 29.92 in 3.7 mi North 2.3 mph - N/A   Unknown
7:30 AM 68.0 °F - 66.2 °F 94% 29.92 in 6.2 mi Variable 2.3 mph - N/A   Unknown
8:00 AM 69.8 °F - 66.2 °F 88% 29.92 in 6.2 mi Variable 1.2 mph - N/A   Unknown
8:30 AM 71.6 °F - 68.0 °F 88% 29.92 in 6.2 mi Calm Calm - N/A   Unknown
9:00 AM 73.4 °F - 68.0 °F 83% 29.92 in 6.2 mi Calm Calm - N/A   Unknown
9:30 AM 77.0 °F - 66.2 °F 69% 29.92 in 6.2 mi Variable 2.3 mph - N/A   Unknown
10:00 AM 78.8 °F - 64.4 °F 61% 29.92 in 6.2 mi Variable 2.3 mph - N/A   Unknown
10:30 AM 82.4 °F 84.6 °F 66.2 °F 58% 29.92 in 6.2 mi Variable 2.3 mph - N/A   Unknown
11:00 AM 84.2 °F 85.6 °F 64.4 °F 51% 29.92 in 6.2 mi SSE 8.1 mph - N/A   Unknown
11:30 AM 86.0 °F 87.3 °F 64.4 °F 48% 29.92 in 6.2 mi SSE 9.2 mph - N/A   Partly Cloudy
12:00 PM 86.0 °F 86.6 °F 62.6 °F 45% 29.92 in 6.2 mi SSE 8.1 mph - N/A   Partly Cloudy
12:30 PM 87.8 °F 89.4 °F 64.4 °F 46% 29.89 in 6.2 mi SSE 5.8 mph - N/A   Scattered Clouds
1:00 PM 89.6 °F 90.1 °F 62.6 °F 40% 29.89 in 6.2 mi South 10.4 mph - N/A   Partly Cloudy
1:30 PM 87.8 °F 88.5 °F 62.6 °F 43% 29.89 in 6.2 mi South 11.5 mph - N/A   Unknown
2:00 PM 89.6 °F 89.5 °F 60.8 °F 38% 29.89 in 6.2 mi South 13.8 mph - N/A   Partly Cloudy
2:30 PM 91.4 °F 91.4 °F 60.8 °F 36% 29.89 in 6.2 mi SSW 12.7 mph - N/A   Unknown
3:00 PM 89.6 °F 90.1 °F 62.6 °F 40% 29.89 in 6.2 mi South 12.7 mph - N/A   Unknown
3:30 PM 89.6 °F 90.1 °F 62.6 °F 40% 29.89 in 6.2 mi South 12.7 mph - N/A   Unknown
4:00 PM 89.6 °F 89.5 °F 60.8 °F 38% 29.89 in 6.2 mi South 12.7 mph - N/A   Unknown
4:30 PM 89.6 °F 89.5 °F 60.8 °F 38% 29.89 in 6.2 mi South 15.0 mph - N/A   Unknown
5:00 PM 87.8 °F 87.6 °F 60.8 °F 40% 29.89 in 6.2 mi South 16.1 mph - N/A   Unknown
5:30 PM 87.8 °F 88.5 °F 62.6 °F 43% 29.89 in 6.2 mi South 9.2 mph - N/A   Unknown
6:00 PM 86.0 °F 86.1 °F 60.8 °F 43% 29.89 in 6.2 mi South 12.7 mph - N/A   Unknown
6:30 PM 86.0 °F 86.1 °F 60.8 °F 43% 29.89 in 6.2 mi South 11.5 mph - N/A   Unknown
7:30 PM 82.4 °F 83.4 °F 62.6 °F 51% 29.89 in 6.2 mi SW 10.4 mph - N/A   Unknown
8:00 PM 80.6 °F 82.3 °F 64.4 °F 58% 29.89 in 6.2 mi SSW 9.2 mph - N/A   Unknown
8:30 PM 78.8 °F - 64.4 °F 61% 29.89 in 6.2 mi South 6.9 mph - N/A   Unknown
9:00 PM 77.0 °F - 64.4 °F 65% 29.89 in 6.2 mi SSE 3.5 mph - N/A   Unknown
9:30 PM 75.2 °F - 66.2 °F 73% 29.92 in 6.2 mi Calm Calm - N/A   Unknown
10:00 PM 73.4 °F - 66.2 °F 78% 29.92 in 6.2 mi Variable 3.5 mph - N/A   Unknown
10:30 PM 73.4 °F - 68.0 °F 83% 29.95 in 6.2 mi Variable 2.3 mph - N/A   Unknown
11:00 PM 73.4 °F - 68.0 °F 83% 29.95 in 6.2 mi Variable 3.5 mph - N/A   Unknown
11:30 PM 71.6 °F - 68.0 °F 88% 29.95 in 6.2 mi Variable 2.3 mph - N/A   Unknown